Fort Leonard Wood, MO

3:09 PM CST on February 20, 2017 (GMT -0600)
Waynesville Regional At Forney Field

Weather History for KTBN - October, 2013

Change the Weather History Date:

Saturday, October 19, 2013

  Actual Average Record
Temperature  
Mean Temperature 45 °F -  
Max Temperature 55 °F 66 °F 86 °F (2005)
Min Temperature 35 °F 48 °F 32 °F (1996)
Degree Days  
Heating Degree Days 20    
Moisture  
Dew Point 39 °F    
Average Humidity 85    
Maximum Humidity 100    
Minimum Humidity 49    
Precipitation  
Precipitation 0.01 in - - ()
Sea Level Pressure  
Sea Level Pressure 30.04 in    
Wind  
Wind Speed 6 mph (West)    
Max Wind Speed 10 mph    
Max Gust Speed 17 mph    
Visibility 10 miles    
Events      
Averages and records for this station are not official NWS values.
T = Trace of Precipitation, MM = Missing Value Source: NWS Daily Summary

Daily Weather History Graph

Daily Weather History Graph

Search for Another Location

Airport or City:

Trip Planner

Search our weather history database for the weather conditions in past years. The results will help you decide how hot, cold, wet, or windy it might be!

Date:

Astronomy

Oct. 19, 2013 Rise Set
Actual Time 7:20 AM CDT 6:25 PM CDT
Civil Twilight 6:54 AM CDT 6:51 PM CDT
Nautical Twilight 6:23 AM CDT 7:22 PM CDT
Astronomical Twilight 5:53 AM CDT 7:52 PM CDT
Moon 6:54 PM CDT (10/19) 7:57 AM CDT (10/19)
Length of Visible Light 11h 57m
Length of Day
11h 04m
Waxing Gibbous, 99% of the Moon is Illuminated
Oct 19
Waxing Gibbous
Oct 26
Last Quarter
Nov 3
New
Nov 9
First Quarter
Nov 17
Full

Hourly Weather History & Observations

Time (CDT) Temp. Windchill Dew Point Humidity Pressure Visibility Wind Dir Wind Speed Gust Speed Precip Events Conditions
1:53 AM 39.2 °F 34.2 °F 39.2 °F 100% 30.04 in 10.0 mi WNW 6.9 mph - N/A   Light Drizzle
1:58 AM 39.7 °F 35.6 °F 39.7 °F 100% 30.06 in 10.0 mi Variable 5.8 mph - 0.01 in   Light Drizzle
2:47 AM 39.2 °F 35.0 °F 39.2 °F 100% 30.03 in 10.0 mi NW 5.8 mph - N/A   Overcast
2:58 AM 39.4 °F 34.5 °F 39.4 °F 100% 30.04 in 10.0 mi WNW 6.9 mph - 0.00 in   Overcast
3:37 AM 39.2 °F 32.5 °F 39.2 °F 100% 30.03 in 10.0 mi NW 10.4 mph - N/A   Overcast
3:58 AM 38.8 °F 33.8 °F 38.8 °F 100% 30.04 in 10.0 mi NW 6.9 mph - 0.00 in   Overcast
4:03 AM 39.2 °F 35.0 °F 39.2 °F 100% 30.02 in 10.0 mi NW 5.8 mph - N/A   Overcast
4:39 AM 39.2 °F 35.9 °F 39.2 °F 100% 30.03 in 10.0 mi WNW 4.6 mph - N/A   Overcast
4:58 AM 38.7 °F 34.3 °F 38.7 °F 100% 30.05 in 10.0 mi West 5.8 mph - N/A   Overcast
5:51 AM 39.2 °F 35.0 °F 39.2 °F 100% 30.04 in 10.0 mi West 5.8 mph - N/A   Overcast
6:13 AM 39.2 °F - 39.2 °F 100% 30.05 in 10.0 mi West 2.3 mph - N/A   Overcast
6:43 AM 37.4 °F - 37.4 °F 100% 30.05 in 10.0 mi West 2.3 mph - N/A   Scattered Clouds
8:54 AM 35.6 °F 29.9 °F 35.6 °F 100% 30.06 in 10.0 mi West 6.9 mph - N/A   Overcast
9:58 AM 39.2 °F 33.6 °F 39.2 °F 100% 30.10 in 10.0 mi West 8.1 mph - N/A   Overcast
10:09 AM 39.2 °F 35.0 °F 39.2 °F 100% 30.07 in 10.0 mi West 5.8 mph - N/A   Overcast
10:46 AM 42.8 °F 38.6 °F 39.2 °F 87% 30.07 in 10.0 mi Variable 6.9 mph - N/A   Scattered Clouds
10:55 AM 42.8 °F 39.3 °F 38.5 °F 85% 30.09 in 10.0 mi Variable 5.8 mph - N/A   Partly Cloudy
10:56 AM 42.8 °F 41.1 °F 39.2 °F 87% 30.07 in 10.0 mi Variable 3.5 mph - N/A   Partly Cloudy
11:58 AM 48.0 °F - 37.9 °F 68% 30.08 in 10.0 mi Variable 5.8 mph - N/A   Clear
12:58 PM 51.1 °F - 36.1 °F 57% 30.06 in 10.0 mi Variable 5.8 mph 17.3 mph N/A   Clear
1:58 PM 53.2 °F - 36.7 °F 53% 30.04 in 10.0 mi WSW 8.1 mph - N/A   Clear
2:58 PM 54.3 °F - 37.2 °F 52% 30.03 in 10.0 mi WSW 8.1 mph - N/A   Clear
3:58 PM 55.4 °F - 36.5 °F 49% 30.02 in 10.0 mi Variable 6.9 mph - N/A   Clear
4:58 PM 55.0 °F - 37.9 °F 53% 30.02 in 10.0 mi Variable 6.9 mph - N/A   Clear
5:58 PM 53.2 °F - 38.7 °F 58% 30.00 in 10.0 mi SW 3.5 mph - N/A   Clear
6:58 PM 47.3 °F - 40.5 °F 77% 30.02 in 10.0 mi SSW 3.5 mph - N/A   Clear
7:58 PM 45.1 °F 42.8 °F 39.9 °F 82% 30.02 in 10.0 mi South 4.6 mph - N/A   Clear
8:58 PM 44.2 °F 41.8 °F 39.4 °F 83% 30.02 in 10.0 mi South 4.6 mph - N/A   Clear
9:58 PM 43.7 °F 40.3 °F 38.7 °F 82% 30.03 in 10.0 mi South 5.8 mph - N/A   Clear
10:58 PM 44.2 °F 41.8 °F 38.8 °F 81% 30.01 in 10.0 mi South 4.6 mph - N/A   Clear
11:58 PM 44.4 °F 42.0 °F 38.3 °F 79% 30.02 in 10.0 mi SSW 4.6 mph - N/A   Clear